Location: Ay?beleni
(36.6500°N, 30.3000°E)
Time: 04:46:23
(UTC+00:00)

Cosmos 494 Rocket - Pass Details

Date: 16 October 2021
Orbit: 743 x 770 km, 74.1° (Epoch: 08 December)

Event Time Altitude Azimuth Distance (km) Brightness Sun altitude
Rises 16:08:05 0° 346° (NNW) 3,232 7.4 -10.2°
Reaches altitude 10° 16:10:31 10° 351° (N) 2,299 6.6 -10.7°
Maximum altitude 16:15:39 57° 70° (ENE) 892 4.0 -11.7°
Drops below altitude 10° 16:20:42 10° 148° (SSE) 2,267 6.2 -12.7°
Sets 16:23:05 0° 153° (SSE) 3,183 7.0 -13.2°
